TimeCST,TemperatureF,Dew PointF,Humidity,Sea Level PressureIn,VisibilityMPH,Wind Direction,Wind SpeedMPH,Gust SpeedMPH,PrecipitationIn,Events,Conditions,WindDirDegrees,DateUTC
12:35 AM,15.8,10.4,79,30.09,10.0,NNE,8.1,-,N/A,,Clear,20,2013-01-13 06:35:00
1:15 AM,14.0,10.4,86,30.10,10.0,NE,5.8,-,N/A,,Scattered Clouds,50,2013-01-13 07:15:00
1:35 AM,14.0,8.6,79,30.11,10.0,NNE,4.6,-,N/A,,Mostly Cloudy,20,2013-01-13 07:35:00
2:15 AM,17.6,12.2,79,30.12,10.0,North,5.8,-,N/A,,Overcast,10,2013-01-13 08:15:00
2:35 AM,15.8,10.4,79,30.13,10.0,North,5.8,-,N/A,,Overcast,360,2013-01-13 08:35:00
3:15 AM,14.0,10.4,86,30.16,10.0,NNW,4.6,-,N/A,,Overcast,330,2013-01-13 09:15:00
3:35 AM,15.8,12.2,86,30.15,10.0,North,4.6,-,N/A,,Overcast,10,2013-01-13 09:35:00
3:55 AM,17.6,12.2,79,30.17,10.0,NW,3.5,-,N/A,,Overcast,320,2013-01-13 09:55:00
4:15 AM,15.8,10.4,79,30.17,10.0,NNW,5.8,-,N/A,,Overcast,330,2013-01-13 10:15:00
4:35 AM,14.0,8.6,79,30.17,10.0,NNW,5.8,-,N/A,,Mostly Cloudy,330,2013-01-13 10:35:00
4:55 AM,12.2,8.6,85,30.16,10.0,North,4.6,-,N/A,,Scattered Clouds,360,2013-01-13 10:55:00
5:15 AM,12.2,8.6,85,30.16,10.0,Calm,Calm,-,N/A,,Mostly Cloudy,0,2013-01-13 11:15:00
5:35 AM,14.0,10.4,86,30.16,10.0,North,4.6,-,N/A,,Overcast,360,2013-01-13 11:35:00
6:15 AM,14.0,10.4,86,30.17,10.0,North,4.6,-,N/A,,Overcast,10,2013-01-13 12:15:00
6:35 AM,14.0,10.4,86,30.18,10.0,Calm,Calm,-,N/A,,Overcast,0,2013-01-13 12:35:00
6:55 AM,14.0,10.4,86,30.19,10.0,Calm,Calm,-,N/A,,Overcast,0,2013-01-13 12:55:00
7:15 AM,12.2,8.6,85,30.19,10.0,NNE,4.6,-,N/A,,Mostly Cloudy,20,2013-01-13 13:15:00
7:35 AM,12.2,8.6,85,30.20,10.0,Calm,Calm,-,N/A,,Mostly Cloudy,0,2013-01-13 13:35:00
7:55 AM,12.2,8.6,85,30.21,10.0,Calm,Calm,-,N/A,,Scattered Clouds,0,2013-01-13 13:55:00
8:15 AM,10.4,8.6,92,30.22,10.0,Calm,Calm,-,N/A,,Scattered Clouds,0,2013-01-13 14:15:00
8:35 AM,10.4,6.8,85,30.21,10.0,Calm,Calm,-,N/A,,Clear,0,2013-01-13 14:35:00
8:55 AM,10.4,8.6,92,30.23,10.0,Calm,Calm,-,N/A,,Clear,0,2013-01-13 14:55:00
9:15 AM,14.0,10.4,86,30.24,10.0,Calm,Calm,-,N/A,,Clear,0,2013-01-13 15:15:00
9:35 AM,17.6,12.2,79,30.24,10.0,Calm,Calm,-,N/A,,Clear,0,2013-01-13 15:35:00
10:15 AM,19.4,12.2,74,30.24,10.0,NNE,5.8,-,N/A,,Clear,20,2013-01-13 16:15:00
10:35 AM,19.4,12.2,74,30.24,10.0,North,5.8,-,N/A,,Clear,10,2013-01-13 16:35:00
10:55 AM,21.2,12.2,68,30.25,10.0,North,3.5,-,N/A,,Clear,350,2013-01-13 16:55:00
11:15 AM,21.2,12.2,68,30.24,10.0,NNW,3.5,-,N/A,,Clear,340,2013-01-13 17:15:00
11:35 AM,21.2,12.2,68,30.24,10.0,North,3.5,-,N/A,,Clear,350,2013-01-13 17:35:00
12:15 PM,23.0,12.2,63,30.21,10.0,North,5.8,-,N/A,,Clear,10,2013-01-13 18:15:00
12:35 PM,23.0,12.2,63,30.20,10.0,Calm,Calm,-,N/A,,Clear,0,2013-01-13 18:35:00
12:55 PM,23.0,14.0,68,30.19,10.0,ENE,5.8,-,N/A,,Clear,60,2013-01-13 18:55:00
1:15 PM,24.8,14.0,64,30.18,10.0,NNE,5.8,-,N/A,,Clear,30,2013-01-13 19:15:00
1:35 PM,24.8,14.0,64,30.17,10.0,NNE,4.6,-,N/A,,Clear,30,2013-01-13 19:35:00
2:15 PM,26.6,14.0,59,30.17,10.0,Calm,Calm,-,N/A,,Clear,0,2013-01-13 20:15:00
2:35 PM,26.6,14.0,59,30.17,10.0,North,4.6,-,N/A,,Clear,10,2013-01-13 20:35:00
2:55 PM,26.6,14.0,59,30.17,10.0,NE,3.5,-,N/A,,Clear,40,2013-01-13 20:55:00
3:15 PM,28.4,15.8,59,30.17,10.0,NNE,6.9,-,N/A,,Clear,30,2013-01-13 21:15:00
3:35 PM,28.4,14.0,55,30.18,10.0,Calm,Calm,-,N/A,,Clear,0,2013-01-13 21:35:00
4:15 PM,26.6,14.0,59,30.19,10.0,NE,5.8,-,N/A,,Clear,50,2013-01-13 22:15:00
4:35 PM,26.6,14.0,59,30.18,10.0,East,8.1,-,N/A,,Clear,80,2013-01-13 22:35:00
4:55 PM,26.6,14.0,59,30.18,10.0,ENE,8.1,-,N/A,,Clear,60,2013-01-13 22:55:00
5:15 PM,26.6,14.0,59,30.18,10.0,ENE,6.9,-,N/A,,Clear,70,2013-01-13 23:15:00
5:35 PM,24.8,14.0,64,30.19,10.0,ENE,5.8,-,N/A,,Clear,70,2013-01-13 23:35:00
5:55 PM,23.0,14.0,68,30.19,10.0,East,4.6,-,N/A,,Clear,80,2013-01-13 23:55:00
6:15 PM,21.2,14.0,74,30.19,10.0,East,3.5,-,N/A,,Clear,80,2013-01-14 00:15:00
6:35 PM,19.4,14.0,80,30.19,10.0,ENE,3.5,-,N/A,,Clear,70,2013-01-14 00:35:00
6:55 PM,19.4,14.0,80,30.20,10.0,East,3.5,-,N/A,,Clear,80,2013-01-14 00:55:00
7:15 PM,19.4,12.2,74,30.21,10.0,ESE,3.5,-,N/A,,Clear,110,2013-01-14 01:15:00
7:55 PM,15.8,12.2,86,30.22,10.0,SE,4.6,-,N/A,,Clear,130,2013-01-14 01:55:00
8:15 PM,15.8,12.2,86,30.22,10.0,SE,4.6,-,N/A,,Clear,140,2013-01-14 02:15:00
8:35 PM,15.8,12.2,86,30.22,10.0,SE,3.5,-,N/A,,Clear,130,2013-01-14 02:35:00
9:15 PM,17.6,14.0,86,30.22,10.0,Calm,Calm,-,N/A,,Clear,0,2013-01-14 03:15:00
9:55 PM,19.4,14.0,80,30.22,10.0,Calm,Calm,-,N/A,,Clear,0,2013-01-14 03:55:00
10:15 PM,17.6,12.2,79,30.23,10.0,Calm,Calm,-,N/A,,Clear,0,2013-01-14 04:15:00
10:35 PM,17.6,14.0,86,30.23,10.0,Calm,Calm,-,N/A,,Clear,0,2013-01-14 04:35:00
10:55 PM,17.6,14.0,86,30.24,10.0,Calm,Calm,-,N/A,,Clear,0,2013-01-14 04:55:00
11:15 PM,17.6,14.0,86,30.25,10.0,Calm,Calm,-,N/A,,Clear,0,2013-01-14 05:15:00
11:35 PM,17.6,14.0,86,30.25,10.0,Calm,Calm,-,N/A,,Clear,0,2013-01-14 05:35:00
11:55 PM,17.6,14.0,86,30.24,10.0,Calm,Calm,-,N/A,,Clear,0,2013-01-14 05:55:00